Regional Weather Roundup
Issued by NWS

Home | Current Version | Previous Version | Text Only | Print | Product List | Glossary On
Versions: 1 2 3 4 5 6 7 8 9 10 11 12 13 14 15 16 17 18 19 20 21 22 23 24 25 26 27 28 29 30 31 32 33 34 35 36 37 38 39 40 41 42 43 44 45 46 47 48 49 50
000
ASUS43 KMKX 252100
RWRWI

WISCONSIN REGIONAL WEATHER ROUNDUP
NATIONAL WEATHER SERVICE MILWAUKEE/SULLIVAN WI
300 PM CST THU DEC 25 2014

NOTE: "FAIR" INDICATES FEW OR NO CLOUDS BELOW 12,000 FEET WITH NO
SIGNIFICANT WEATHER AND/OR OBSTRUCTIONS TO VISIBILITY.

WIZ001-002-006>008-014>016-023>028-252200-
NORTHWEST WISCONSIN

CITY           SKY/WX    TMP DP  RH WIND       PRES   REMARKS
SUPERIOR ARPT  CLOUDY    33  29  85 W3        29.76R
ASHLAND        CLOUDY    33  28  81 SW8       29.77R WCI  26
HAYWARD        CLOUDY    32  27  81 SW8       29.77R WCI  25
SIREN          CLOUDY    32  30  91 SW3       29.77R FOG
CUMBERLAND     LGT SNOW  32  30  93 S6        29.76R WCI  26
RICE LAKE      LGT SNOW  32  29  90 S5        29.79R WCI  27
CHETEK         LGT SNOW  32  29  88 S3        29.78R
LADYSMITH      LGT SNOW  32  30  92 S7        29.80R WCI  26
EAU CLAIRE     NOT AVBL
MENOMONIE      CLOUDY    35  30  82 SE5       29.79R WCI  31
NEW RICHMOND   LGT SNOW  32  32  99 S5        29.77R WCI  28
OSCEOLA        LGT SNOW  32  32 100 S3        29.80R
$$

WIZ003>005-009-010-017-018-252200-
NORTH CENTRAL WISCONSIN

CITY           SKY/WX    TMP DP  RH WIND       PRES   REMARKS
MANITOWISH WTR CLOUDY    30  28  94 SW7       29.74R WCI  23
ARBOR VITAE    CLOUDY    32  28  87 SW7       29.74S WCI  25
WOODRUFF       CLOUDY    32  28  87 SW7       29.74S WCI  25
RHINELANDER    LGT SNOW  30  26  85 SW8       29.77R FOG     WCI  22
EAGLE RIVER    CLOUDY    31  29  92 SW7       29.74R WCI  24
LAND O LAKES   CLOUDY    32  30  92 SW12      29.74R WCI  23
PHILLIPS       CLOUDY    31  27  86 SW9       29.76R WCI  22
TOMAHAWK       LGT SNOW  31  27  87 CALM      29.78R
MEDFORD        LGT SNOW  30  28  91 S7        29.78S WCI  23
MERRILL        LGT SNOW  32  29  90 SW6       29.80R WCI  26
$$

WIZ029-030-035-036-043>047-252200-
CENTRAL WISCONSIN

CITY           SKY/WX    TMP DP  RH WIND       PRES   REMARKS
WAUSAU         CLOUDY    32  28  85 SW8       29.80R WCI  25
MOSINEE        CLOUDY    32  30  93 S6        29.82R WCI  26
MARSHFIELD     CLOUDY    34  28  79 S6        29.80R WCI  29
STEVENS POINT  CLOUDY    32  27  82 SW6       29.83R WCI  26
WAUPACA        PTSUNNY   37  30  74 SW7       29.84S WCI  32
WAUTOMA        NOT AVBL
WISC RAPIDS    CLOUDY    34  27  75 S6        29.83S WCI  29
CAMP DOUGLAS   NOT AVBL
$$

WIZ011>013-019>022-031-037>040-048>050-252200-
NORTHEAST WISCONSIN

CITY           SKY/WX    TMP DP  RH WIND       PRES   REMARKS
ANTIGO         CLOUDY    31  27  87 SW10      29.79R WCI  22
SHAWANO        CLOUDY    37  29  75 SW6       29.84R WCI  32
OCONTO         CLOUDY    35  30  82 SW8       29.84R WCI  28
STURGEON BAY   CLOUDY    34  28  80 SW9       29.86R WCI  26
GREEN BAY      MOCLDY    36  30  79 SW8       29.85R WCI  30
MANITOWOC      NOT AVBL
APPLETON       PTSUNNY   36  28  75 SW12      29.86R WCI  27
CLINTONVILLE   CLOUDY    34  30  86 SW8       29.84R WCI  27
OSHKOSH        CLOUDY    37  30  75 SW7       29.86R WCI  32
$$

WIZ032>034-041-042-053>061-252200-
SOUTHWEST WISCONSIN

CITY           SKY/WX    TMP DP  RH WIND       PRES   REMARKS
LA CROSSE      PTSUNNY   42  30  62 S8        29.80S
SPARTA         CLOUDY    38  30  73 S5        29.82S WCI  34
VIROQUA        PTSUNNY   37  33  88 S8        29.79R WCI  30
BOSCOBEL       PTSUNNY   43  31  62 VRB5      29.83R
PRAIRIE DU CHI PTSUNNY   43  30  61 SE7       29.81S
PLATTEVILLE    CLOUDY    42  33  71 S6        29.84F
$$

WIZ056-057-062-063-064-067-068-252200-
SOUTH CENTRAL WISCONSIN

CITY           SKY/WX    TMP DP  RH WIND       PRES   REMARKS
REEDSBURG      PTSUNNY   40  32  74 S9        29.82F WCI  34
BARABOO/DELLS  CLOUDY    38  31  74 S8        29.82S WCI  33
LONE ROCK      NOT AVBL
MINERAL POINT  PTSUNNY   43  32  65 S10       29.83S
MADISON        PTSUNNY   41  31  67 S10       29.86S
MIDDLETON      PTSUNNY   42  31  64 S10       29.86R
WATERTOWN      CLOUDY    40  32  74 SW12      29.88S WCI  32
MONROE         MOSUNNY   41  32  70 S13       29.86S
JANESVILLE     MOSUNNY   43  30  61 S10       29.89S
$$

WIZ051-052-058>065-066-070>072-252200-
SOUTHEAST WISCONSIN

CITY           SKY/WX    TMP DP  RH WIND       PRES   REMARKS
MILWAUKEE      PTSUNNY   41  30  65 SW13      29.92R
WAUKESHA       PTSUNNY   39  30  70 SW12G17   29.90S WCI  32
MILWAUKEE/TIMM NOT AVBL
RACINE         PTSUNNY   41  30  65 SW13      29.94R
BURLINGTON     MOSUNNY   40  32  71 S15       29.91R WCI  32
KENOSHA        PTSUNNY   40  31  70 SW12      29.93R WCI  33
FOND DU LAC    CLOUDY    39  30  70 S13       29.86R WCI  31
SHEBOYGAN      CLOUDY    38  30  73 S9        29.87S WCI  31
WEST BEND      PTSUNNY   37  30  75 SW8       29.88S WCI  31
JUNEAU         CLOUDY    38  32  78 S14       29.88R WCI  29
$$

LSZ147-162-252200-
LAKE SUPERIOR

STATION/POSITION TIME  TEMP    WIND        PRES    WAVE
                       AIR SEA DIR/SP/G            HT/PER
                 (UTC) (F)     (DEG/KT/KT) (MB)    (FT/S)
DEVILS ISLAND    2000   34     240/ 14/ 19 1007.4R
PORT WING        2000   34     230/  9/ 12 1007.8R
SAXON HARBOR     2000   35     200/  5/ 11 1007.8R
$$

LMZ867-665-643>646-252200-
LAKE MICHIGAN

STATION/POSITION TIME  TEMP    WIND        PRES    WAVE
                       AIR SEA DIR/SP/G            HT/PER
                 (UTC) (F)     (DEG/KT/KT) (MB)    (FT/S)
CHAMBERS ISLAND  2000   36     200/  8/ 14 1009.8R
NORTHPORT PIER   2000   35     240/  6/ 20 1009.8R
SISTER BAY       2013          260/ 15/ 17   N/A
ALGOMA LAKESHORE 2015          260/ 13/ 18   N/A
KEWAUNEE LAKESHO 2000   36     240/  7/ 11 1009.8R
SHEBOYGAN LAKESH 2000   37 37  210/ 10/ 12 1012.7R
PORT WASHINGTON  2000   41     210/ 10/ 14 1012.9R
MILWAUKEE LAKESH 2000   39     230/ 15/ 19   N/A
KENOSHA   LAKESH 2000   40     210/ 10/ 18 1013.2F
$$

TC  - TEMPERATURE IN CELSIUS
VSB - VISIBILITY IN STATUTE MILES
WCI - WIND CHILL INDEX
HX  - HEAT INDEX



USA.gov is the U.S. government's official web portal to all federal, state and local government web resources and services.